Location: Lafig�re
(44.4503°N, 4.0357°E)
Time: 04:50:36
(UTC+00:00)

Transit 2A Rocket - Pass Details

Date: 26 June 2021
Orbit: 590 x 913 km, 66.7° (Epoch: 26 July)

Event Time Altitude Azimuth Distance (km) Brightness Sun altitude
Exits shadow 22:23:35 47° 184° (S) 794 4.7 -19.6°
Maximum altitude 22:24:41 70° 120° (ESE) 643 4.4 -19.7°
Drops below altitude 10° 22:29:07 10° 36° (NE) 1,999 7.6 -19.9°
Sets 22:31:28 0° 34° (NE) 2,948 8.6 -20.1°
